Regional Weather Roundup
Issued by NWS

Home | Current Version | Previous Version | Text Only | Print | Product List | Glossary Off
Versions: 1 2 3 4 5 6 7 8 9 10 11 12 13 14 15 16 17 18 19 20 21 22 23 24 25 26 27 28 29 30 31 32 33 34 35 36 37 38 39 40 41 42 43 44 45 46 47 48 49 50

000
ASUS45 KCYS 162210
RWRWY

WYOMING REGIONAL WEATHER ROUNDUP
NATIONAL WEATHER SERVICE CHEYENNE WY
400 PM MDT TUE SEP 16 2014

NOTE:  "FAIR" INDICATES FEW OR NO CLOUDS BELOW 12,000 FEET
WITH NO SIGNIFICANT WEATHER AND/OR OBSTRUCTIONS TO VISIBILITY.

WYZ001-162300-
YELLOWSTONE NATIONAL PARK

CITY           SKY/WX    TMP DP  RH WIND       PRES   REMARKS
LK YELLOWSTONE   N/A     66  31  27 VRB3      30.31S
W YELLOWSTONE  NOT AVBL

$$
WYZ002>013-054>058-071-098>099-162300-
NORTHERN WYOMING

CITY           SKY/WX    TMP DP  RH WIND       PRES   REMARKS
JACKSON        SUNNY     75  36  23 SW5       30.18F
CODY           PTSUNNY   73  45  35 N7        30.07S
GREYBULL       MOSUNNY   83  36  18 SE3       29.97F
WORLAND        MOSUNNY   85  37  18 NE5       29.99F
SHERIDAN       MOSUNNY   82  33  17 W3        29.99F
BUFFALO        SUNNY     81  33  17 N10       30.06S
GILLETTE       SUNNY     84  37  18 N14       30.00F
HULETT         FAIR      81  32  17 MISG      30.02
NEWCASTLE      FAIR      82  30  15 MISG      30.00

$$
WYZ014>020-022>026-101>103-162300-
CENTRAL WYOMING

CITY           SKY/WX    TMP DP  RH WIND       PRES   REMARKS
BIG PINEY      MOSUNNY   78  32  18 VRB3      30.23F
PINEDALE       PTCLDY    75  32  20 W3        30.24F
DUBOIS         MOCLDY    72  32  23 W15G24    30.22F
LANDER         MOSUNNY   85  33  15 N6        30.08F
RIVERTON       MOSUNNY   83  31  15 VRB5      30.08F
CASPER         SUNNY     86  29  12 W21G28    30.07F
DOUGLAS        SUNNY     86  34  15 W17G23    30.04F

$$
WYZ021-027>030-104>119-162300-
SOUTHERN WYOMING

CITY           SKY/WX    TMP DP  RH WIND       PRES   REMARKS
EVANSTON       PTSUNNY   82  38  20 W12       30.23F
KEMMERER       PTCLDY   N/A N/A N/A W13G18    30.24F
ROCK SPRINGS   MOSUNNY   81  30  15 W16       30.20F
DIXON          FAIR      81  31  16 SW3       30.23F
RAWLINS        MOSUNNY   78  29  16 SW12      30.20F
SARATOGA       FAIR      75  32  20 W5        30.25S
LARAMIE        MOSUNNY   77  30  17 N15G23    30.24F
CHEYENNE       MOSUNNY   81  29  15 NW16G22   30.15F
TORRINGTON     SUNNY     86  43  22 S9        30.01F
PINE BLUFFS    FAIR      82  32  16 N8G18     30.11F

$$



USA.gov is the U.S. government's official web portal to all federal, state and local government web resources and services.